Time,TemperatureF,DewpointF,PressureIn,WindDirection,WindDirectionDegrees,WindSpeedMPH,WindSpeedGustMPH,Humidity,HourlyPrecipIn,Conditions,Clouds,dailyrainin,SoftwareType,DateUTC
2013-08-12 00:02:00,62.6,57.4,29.92,South,180,0.0,0.0,83,0.00,,,0.00,Wunderground v.1.15,2013-08-12 04:02:00,
2013-08-12 00:04:00,62.5,57.3,29.92,South,180,0.0,0.0,83,0.00,,,0.00,Wunderground v.1.15,2013-08-12 04:04:00,
2013-08-12 00:06:00,62.5,57.3,29.92,South,180,0.0,0.0,83,0.00,,,0.00,Wunderground v.1.15,2013-08-12 04:06:00,
2013-08-12 00:08:00,62.5,57.3,29.92,South,180,0.0,0.0,83,0.00,,,0.00,Wunderground v.1.15,2013-08-12 04:08:00,
2013-08-12 00:11:00,62.5,58.0,29.92,South,180,0.0,0.0,84,0.00,,,0.00,weatherlink.com 1.10,2013-08-12 04:11:00,
2013-08-12 00:18:00,62.5,57.9,29.92,South,180,0.0,0.0,85,0.00,,,0.00,Wunderground v.1.15,2013-08-12 04:18:00,
2013-08-12 00:24:00,62.3,57.7,29.92,South,179,0.0,0.0,85,0.00,,,0.00,Wunderground v.1.15,2013-08-12 04:24:00,
2013-08-12 00:30:00,62.1,57.9,29.92,South,179,0.0,0.0,86,0.00,,,0.00,Wunderground v.1.15,2013-08-12 04:30:00,
2013-08-12 00:36:00,62.0,57.8,29.92,South,179,0.0,0.0,86,0.00,,,0.00,Wunderground v.1.15,2013-08-12 04:36:00,
2013-08-12 00:41:00,61.8,58.0,29.92,South,179,0.0,0.0,87,0.00,,,0.00,weatherlink.com 1.10,2013-08-12 04:41:00,
2013-08-12 00:50:00,61.5,57.9,29.92,South,179,0.0,0.0,88,0.00,,,0.00,Wunderground v.1.15,2013-08-12 04:50:00,
2013-08-12 00:56:00,61.3,58.0,29.92,South,179,0.0,0.0,89,0.00,,,0.00,Wunderground v.1.15,2013-08-12 04:56:00,
2013-08-12 01:02:00,61.1,57.8,29.92,SSE,159,0.0,0.0,89,0.00,,,0.00,Wunderground v.1.15,2013-08-12 05:02:00,
2013-08-12 01:08:00,60.9,57.6,29.92,SE,141,0.0,0.0,89,0.00,,,0.00,Wunderground v.1.15,2013-08-12 05:08:00,
2013-08-12 01:14:00,60.9,57.9,29.92,SE,141,0.0,0.0,90,0.00,,,0.00,Wunderground v.1.15,2013-08-12 05:14:00,
2013-08-12 01:20:00,60.8,58.2,29.92,SE,141,0.0,0.0,91,0.00,,,0.00,Wunderground v.1.15,2013-08-12 05:20:00,
2013-08-12 01:26:00,60.7,58.1,29.92,SE,141,0.0,0.0,91,0.00,,,0.00,Wunderground v.1.15,2013-08-12 05:26:00,
2013-08-12 01:32:00,60.7,58.1,29.92,SE,140,0.0,0.0,91,0.00,,,0.00,Wunderground v.1.15,2013-08-12 05:32:00,
2013-08-12 01:38:00,60.6,58.0,29.92,SSE,148,0.0,0.0,91,0.00,,,0.00,Wunderground v.1.15,2013-08-12 05:38:00,
2013-08-12 01:44:00,60.6,58.3,29.92,SSE,148,0.0,0.0,92,0.00,,,0.00,Wunderground v.1.15,2013-08-12 05:44:00,
2013-08-12 01:50:00,60.5,58.2,29.91,SSE,148,0.0,0.0,92,0.00,,,0.00,Wunderground v.1.15,2013-08-12 05:50:00,
2013-08-12 01:56:00,60.5,58.2,29.91,SSE,148,0.0,0.0,92,0.00,,,0.00,Wunderground v.1.15,2013-08-12 05:56:00,
2013-08-12 02:02:00,60.4,58.1,29.91,SE,144,0.0,0.0,92,0.00,,,0.00,Wunderground v.1.15,2013-08-12 06:02:00,
2013-08-12 02:08:00,60.4,58.1,29.91,SE,144,0.0,0.0,92,0.00,,,0.00,Wunderground v.1.15,2013-08-12 06:08:00,
2013-08-12 02:14:00,60.5,58.2,29.91,SE,144,0.0,0.0,92,0.00,,,0.00,Wunderground v.1.15,2013-08-12 06:14:00,
2013-08-12 02:20:00,60.6,58.6,29.91,SE,146,0.0,0.0,93,0.00,,,0.00,Wunderground v.1.15,2013-08-12 06:20:00,
2013-08-12 02:26:00,60.7,59.0,29.91,SE,146,0.0,0.0,93,0.00,,,0.00,weatherlink.com 1.10,2013-08-12 06:26:00,
2013-08-12 02:32:00,60.8,58.8,29.91,SE,146,0.0,0.0,93,0.00,,,0.00,Wunderground v.1.15,2013-08-12 06:32:00,
2013-08-12 02:38:00,60.8,58.5,29.91,SE,146,0.0,0.0,92,0.00,,,0.00,Wunderground v.1.15,2013-08-12 06:38:00,
2013-08-12 02:44:00,60.7,58.4,29.91,SE,146,0.0,0.0,92,0.00,,,0.00,Wunderground v.1.15,2013-08-12 06:44:00,
2013-08-12 02:50:00,60.8,58.2,29.91,SE,146,0.0,0.0,91,0.00,,,0.00,Wunderground v.1.15,2013-08-12 06:50:00,
2013-08-12 02:57:00,60.7,58.0,29.91,SE,146,0.0,0.0,91,0.00,,,0.00,weatherlink.com 1.10,2013-08-12 06:57:00,
2013-08-12 03:04:00,60.8,58.2,29.91,SE,146,0.0,0.0,91,0.00,,,0.00,Wunderground v.1.15,2013-08-12 07:04:00,
2013-08-12 03:10:00,60.8,58.2,29.91,SE,146,0.0,0.0,91,0.00,,,0.00,Wunderground v.1.15,2013-08-12 07:10:00,
2013-08-12 03:16:00,61.0,58.7,29.90,SE,146,0.0,0.0,92,0.00,,,0.00,Wunderground v.1.15,2013-08-12 07:16:00,
2013-08-12 03:22:00,61.0,58.4,29.90,SE,146,0.0,0.0,91,0.00,,,0.00,Wunderground v.1.15,2013-08-12 07:22:00,
2013-08-12 03:27:00,60.9,58.0,29.90,SE,146,0.0,0.0,91,0.00,,,0.00,weatherlink.com 1.10,2013-08-12 07:27:00,
2013-08-12 03:34:00,60.9,58.3,29.90,SE,146,0.0,0.0,91,0.00,,,0.00,Wunderground v.1.15,2013-08-12 07:34:00,
2013-08-12 03:40:00,60.9,58.3,29.90,SE,146,0.0,0.0,91,0.00,,,0.00,Wunderground v.1.15,2013-08-12 07:40:00,
2013-08-12 03:46:00,60.9,58.3,29.90,SE,146,0.0,0.0,91,0.00,,,0.00,Wunderground v.1.15,2013-08-12 07:46:00,
2013-08-12 03:52:00,60.8,58.2,29.90,SE,146,0.0,0.0,91,0.00,,,0.00,Wunderground v.1.15,2013-08-12 07:52:00,
2013-08-12 03:57:00,60.8,58.0,29.90,SE,146,0.0,0.0,91,0.00,,,0.00,weatherlink.com 1.10,2013-08-12 07:57:00,
2013-08-12 04:02:00,60.8,57.8,29.90,SE,146,0.0,0.0,90,0.00,,,0.00,Wunderground v.1.15,2013-08-12 08:02:00,
2013-08-12 04:08:00,60.7,57.7,29.89,SE,146,0.0,0.0,90,0.00,,,0.00,Wunderground v.1.15,2013-08-12 08:08:00,
2013-08-12 04:13:00,60.6,58.0,29.89,SE,146,0.0,0.0,90,0.00,,,0.00,weatherlink.com 1.10,2013-08-12 08:13:00,
2013-08-12 04:20:00,60.5,57.2,29.89,SE,146,0.0,0.0,89,0.00,,,0.00,Wunderground v.1.15,2013-08-12 08:20:00,
2013-08-12 04:26:00,60.5,57.6,29.89,SE,146,0.0,0.0,90,0.00,,,0.00,Wunderground v.1.15,2013-08-12 08:26:00,
2013-08-12 04:32:00,60.5,57.6,29.89,SE,146,0.0,0.0,90,0.00,,,0.00,Wunderground v.1.15,2013-08-12 08:32:00,
2013-08-12 04:38:00,60.4,57.5,29.89,SE,146,0.0,0.0,90,0.00,,,0.00,Wunderground v.1.15,2013-08-12 08:38:00,
2013-08-12 04:43:00,60.3,57.0,29.89,SE,146,0.0,0.0,90,0.00,,,0.00,weatherlink.com 1.10,2013-08-12 08:43:00,
2013-08-12 04:48:00,60.2,57.3,29.90,SE,146,0.0,0.0,90,0.00,,,0.00,Wunderground v.1.15,2013-08-12 08:48:00,
2013-08-12 04:54:00,60.0,57.1,29.90,SE,146,0.0,0.0,90,0.00,,,0.00,Wunderground v.1.15,2013-08-12 08:54:00,
2013-08-12 05:00:00,59.7,56.8,29.90,SSW,192,0.0,0.0,90,0.00,,,0.00,Wunderground v.1.15,2013-08-12 09:00:00,
2013-08-12 05:06:00,59.6,56.7,29.90,SSW,192,0.0,0.0,90,0.00,,,0.00,Wunderground v.1.15,2013-08-12 09:06:00,
2013-08-12 05:12:00,59.6,57.0,29.90,SSW,192,0.0,0.0,90,0.00,,,0.00,weatherlink.com 1.10,2013-08-12 09:12:00,
2013-08-12 05:18:00,59.6,57.0,29.90,SSW,192,0.0,0.0,91,0.00,,,0.00,Wunderground v.1.15,2013-08-12 09:18:00,
2013-08-12 05:24:00,59.5,56.9,29.90,SSW,192,0.0,0.0,91,0.00,,,0.00,Wunderground v.1.15,2013-08-12 09:24:00,
2013-08-12 05:30:00,59.3,56.7,29.90,SSW,192,0.0,0.0,91,0.00,,,0.00,Wunderground v.1.15,2013-08-12 09:30:00,
2013-08-12 05:36:00,59.2,56.6,29.90,SSE,167,0.0,0.0,91,0.00,,,0.00,Wunderground v.1.15,2013-08-12 09:36:00,
2013-08-12 05:42:00,59.0,56.0,29.90,SSE,167,0.0,0.0,91,0.00,,,0.00,weatherlink.com 1.10,2013-08-12 09:42:00,
2013-08-12 05:48:00,58.9,56.3,29.90,SSE,167,0.0,0.0,91,0.00,,,0.00,Wunderground v.1.15,2013-08-12 09:48:00,
2013-08-12 05:54:00,59.1,57.1,29.90,SSE,163,0.0,0.0,93,0.00,,,0.00,Wunderground v.1.15,2013-08-12 09:54:00,
2013-08-12 06:00:00,59.0,56.7,29.90,SSE,163,0.0,0.0,92,0.00,,,0.00,Wunderground v.1.15,2013-08-12 10:00:00,
2013-08-12 06:06:00,59.0,56.7,29.90,SSE,163,0.0,0.0,92,0.00,,,0.00,Wunderground v.1.15,2013-08-12 10:06:00,
2013-08-12 06:12:00,59.0,56.7,29.90,SSE,163,0.0,0.0,92,0.00,,,0.00,Wunderground v.1.15,2013-08-12 10:12:00,
2013-08-12 06:18:00,59.0,56.7,29.89,SSE,163,0.0,0.0,92,0.00,,,0.00,Wunderground v.1.15,2013-08-12 10:18:00,
2013-08-12 06:24:00,58.9,56.6,29.90,SSE,163,0.0,0.0,92,0.00,,,0.00,Wunderground v.1.15,2013-08-12 10:24:00,
2013-08-12 06:30:00,58.9,56.6,29.90,SSE,163,0.0,0.0,92,0.00,,,0.00,Wunderground v.1.15,2013-08-12 10:30:00,
2013-08-12 06:36:00,58.9,56.6,29.90,SSE,163,0.0,0.0,92,0.00,,,0.00,Wunderground v.1.15,2013-08-12 10:36:00,
2013-08-12 06:42:00,59.0,56.7,29.90,SSE,163,0.0,0.0,92,0.00,,,0.00,Wunderground v.1.15,2013-08-12 10:42:00,
2013-08-12 06:48:00,59.1,56.8,29.90,SSE,163,0.0,0.0,92,0.00,,,0.00,Wunderground v.1.15,2013-08-12 10:48:00,
2013-08-12 06:54:00,59.3,57.0,29.90,SSE,163,0.0,0.0,92,0.00,,,0.00,Wunderground v.1.15,2013-08-12 10:54:00,
2013-08-12 07:00:00,59.6,57.3,29.90,SSE,163,0.0,0.0,92,0.00,,,0.00,Wunderground v.1.15,2013-08-12 11:00:00,
2013-08-12 07:06:00,59.9,57.3,29.90,SSE,163,0.0,0.0,91,0.00,,,0.00,Wunderground v.1.15,2013-08-12 11:06:00,
2013-08-12 07:12:00,60.3,57.7,29.90,SSE,163,0.0,0.0,91,0.00,,,0.00,Wunderground v.1.15,2013-08-12 11:12:00,
2013-08-12 07:18:00,60.8,58.2,29.90,SSE,163,0.0,0.0,91,0.00,,,0.00,Wunderground v.1.15,2013-08-12 11:18:00,
2013-08-12 07:24:00,61.5,58.5,29.90,SSE,163,0.0,0.0,90,0.00,,,0.00,Wunderground v.1.15,2013-08-12 11:24:00,
2013-08-12 07:30:00,62.1,58.8,29.91,SSE,163,0.0,0.0,89,0.00,,,0.00,Wunderground v.1.15,2013-08-12 11:30:00,
2013-08-12 07:36:00,62.7,59.1,29.90,SSE,163,0.0,0.0,88,0.00,,,0.00,Wunderground v.1.15,2013-08-12 11:36:00,
2013-08-12 07:42:00,63.3,59.4,29.90,SSE,163,0.0,0.0,87,0.00,,,0.00,Wunderground v.1.15,2013-08-12 11:42:00,
2013-08-12 07:48:00,64.0,60.1,29.90,SSE,163,0.0,0.0,87,0.00,,,0.00,Wunderground v.1.15,2013-08-12 11:48:00,
2013-08-12 07:54:00,64.7,60.4,29.90,SSE,163,0.0,0.0,86,0.00,,,0.00,Wunderground v.1.15,2013-08-12 11:54:00,
2013-08-12 08:00:00,65.6,61.0,29.91,SSE,163,0.0,0.0,85,0.00,,,0.00,Wunderground v.1.15,2013-08-12 12:00:00,
2013-08-12 08:06:00,66.3,61.3,29.91,South,170,0.0,0.0,84,0.00,,,0.00,Wunderground v.1.15,2013-08-12 12:06:00,
2013-08-12 08:12:00,66.7,61.7,29.91,South,170,0.0,0.0,84,0.00,,,0.00,Wunderground v.1.15,2013-08-12 12:12:00,
2013-08-12 08:18:00,66.8,61.5,29.91,South,170,0.0,0.0,83,0.00,,,0.00,Wunderground v.1.15,2013-08-12 12:18:00,
2013-08-12 08:24:00,67.2,61.9,29.91,South,170,0.0,0.0,83,0.00,,,0.00,Wunderground v.1.15,2013-08-12 12:24:00,
2013-08-12 08:30:00,67.6,61.9,29.91,SSE,165,0.0,0.0,82,0.00,,,0.00,Wunderground v.1.15,2013-08-12 12:30:00,
2013-08-12 08:36:00,67.9,61.9,29.90,SSE,163,0.0,0.0,81,0.00,,,0.00,Wunderground v.1.15,2013-08-12 12:36:00,
2013-08-12 08:42:00,68.4,61.6,29.90,SSE,163,0.0,0.0,79,0.00,,,0.00,Wunderground v.1.15,2013-08-12 12:42:00,
2013-08-12 08:48:00,69.1,62.3,29.90,SSE,161,0.0,0.0,79,0.00,,,0.00,Wunderground v.1.15,2013-08-12 12:48:00,
2013-08-12 08:54:00,69.5,62.0,29.90,SSE,158,0.0,0.0,77,0.00,,,0.00,Wunderground v.1.15,2013-08-12 12:54:00,
2013-08-12 08:59:00,70.2,62.0,29.90,SSE,158,0.0,0.0,76,0.00,,,0.00,weatherlink.com 1.10,2013-08-12 12:59:00,
2013-08-12 09:06:00,71.1,63.1,29.90,SSE,158,0.0,0.0,76,0.00,,,0.00,Wunderground v.1.15,2013-08-12 13:06:00,
2013-08-12 09:12:00,71.6,62.1,29.90,SSE,159,0.0,0.0,72,0.00,,,0.00,Wunderground v.1.15,2013-08-12 13:12:00,
2013-08-12 09:20:00,72.4,61.7,29.90,SSE,159,0.0,0.0,69,0.00,,,0.00,Wunderground v.1.15,2013-08-12 13:20:00,
2013-08-12 09:26:00,71.6,59.6,29.90,South,188,0.0,0.0,66,0.00,,,0.00,Wunderground v.1.15,2013-08-12 13:26:00,
2013-08-12 09:32:00,70.5,59.4,29.90,NW,323,0.0,0.0,68,0.00,,,0.00,Wunderground v.1.15,2013-08-12 13:32:00,
2013-08-12 09:38:00,68.9,59.1,29.90,WNW,295,1.0,4.0,71,0.00,,,0.00,Wunderground v.1.15,2013-08-12 13:38:00,
2013-08-12 09:44:00,67.7,59.5,29.90,WNW,296,1.0,1.0,75,0.00,,,0.00,Wunderground v.1.15,2013-08-12 13:44:00,
2013-08-12 09:50:00,67.7,60.2,29.90,WNW,301,1.0,1.0,77,0.00,,,0.00,Wunderground v.1.15,2013-08-12 13:50:00,
2013-08-12 09:56:00,68.1,60.6,29.90,SW,236,0.0,2.0,77,0.00,,,0.00,Wunderground v.1.15,2013-08-12 13:56:00,
2013-08-12 10:02:00,69.0,61.1,29.90,SW,232,0.0,5.0,76,0.00,,,0.00,Wunderground v.1.15,2013-08-12 14:02:00,
2013-08-12 10:08:00,69.8,61.9,29.89,SSW,210,0.0,5.0,76,0.00,,,0.00,Wunderground v.1.15,2013-08-12 14:08:00,
2013-08-12 10:14:00,71.2,61.7,29.90,SSW,211,0.0,5.0,72,0.00,,,0.00,Wunderground v.1.15,2013-08-12 14:14:00,
2013-08-12 10:20:00,70.6,59.9,29.90,West,274,1.0,5.0,69,0.00,,,0.00,Wunderground v.1.15,2013-08-12 14:20:00,
2013-08-12 10:26:00,70.0,60.2,29.90,WSW,255,2.0,5.0,71,0.00,,,0.00,Wunderground v.1.15,2013-08-12 14:26:00,
2013-08-12 10:32:00,70.6,60.7,29.89,SW,216,1.0,5.0,71,0.00,,,0.00,Wunderground v.1.15,2013-08-12 14:32:00,
2013-08-12 10:38:00,70.0,57.7,29.89,NW,306,2.0,5.0,65,0.00,,,0.00,Wunderground v.1.15,2013-08-12 14:38:00,
2013-08-12 10:44:00,69.8,58.3,29.89,WSW,251,2.0,5.0,67,0.00,,,0.00,Wunderground v.1.15,2013-08-12 14:44:00,
2013-08-12 10:50:00,70.4,58.1,29.89,WNW,287,2.0,5.0,65,0.00,,,0.00,Wunderground v.1.15,2013-08-12 14:50:00,
2013-08-12 10:56:00,70.4,57.2,29.89,WNW,288,1.0,5.0,63,0.00,,,0.00,Wunderground v.1.15,2013-08-12 14:56:00,
2013-08-12 11:02:00,70.5,58.6,29.89,WSW,239,1.0,6.0,66,0.00,,,0.00,Wunderground v.1.15,2013-08-12 15:02:00,
2013-08-12 11:08:00,71.1,59.2,29.89,SW,225,2.0,6.0,66,0.00,,,0.00,Wunderground v.1.15,2013-08-12 15:08:00,
2013-08-12 11:14:00,71.1,59.2,29.89,WNW,286,1.0,6.0,66,0.00,,,0.00,Wunderground v.1.15,2013-08-12 15:14:00,
2013-08-12 11:20:00,71.0,58.6,29.89,WNW,302,4.0,4.0,65,0.00,,,0.00,Wunderground v.1.15,2013-08-12 15:20:00,
2013-08-12 11:26:00,70.9,59.0,29.89,WNW,299,2.0,6.0,66,0.00,,,0.00,Wunderground v.1.15,2013-08-12 15:26:00,
2013-08-12 11:32:00,71.0,59.1,29.89,NW,315,2.0,6.0,66,0.00,,,0.00,Wunderground v.1.15,2013-08-12 15:32:00,
2013-08-12 11:38:00,70.8,58.4,29.89,WNW,292,3.0,6.0,65,0.00,,,0.00,Wunderground v.1.15,2013-08-12 15:38:00,
2013-08-12 11:44:00,71.4,59.4,29.88,NW,312,2.0,7.0,66,0.00,,,0.00,Wunderground v.1.15,2013-08-12 15:44:00,
2013-08-12 11:50:00,71.4,59.0,29.88,WNW,299,1.0,6.0,65,0.00,,,0.00,Wunderground v.1.15,2013-08-12 15:50:00,
2013-08-12 11:56:00,71.3,58.5,29.88,NW,325,1.0,6.0,64,0.00,,,0.00,Wunderground v.1.15,2013-08-12 15:56:00,
2013-08-12 12:02:00,71.3,58.5,29.88,WNW,290,1.0,8.0,64,0.00,,,0.00,Wunderground v.1.15,2013-08-12 16:02:00,
2013-08-12 12:08:00,71.7,60.2,29.88,WSW,239,2.0,8.0,67,0.00,,,0.00,Wunderground v.1.15,2013-08-12 16:08:00,
2013-08-12 12:14:00,72.3,59.0,29.88,WSW,243,1.0,8.0,63,0.00,,,0.00,Wunderground v.1.15,2013-08-12 16:14:00,
2013-08-12 12:20:00,73.2,59.8,29.88,West,273,1.0,8.0,63,0.00,,,0.00,Wunderground v.1.15,2013-08-12 16:20:00,
2013-08-12 12:26:00,72.8,59.5,29.88,NNE,17,1.0,8.0,63,0.00,,,0.00,Wunderground v.1.15,2013-08-12 16:26:00,
2013-08-12 12:32:00,72.4,59.0,29.88,SSW,192,0.0,4.0,64,0.00,,,0.00,weatherlink.com 1.10,2013-08-12 16:32:00,
2013-08-12 12:38:00,73.6,59.8,29.87,SW,215,1.0,8.0,62,0.00,,,0.00,Wunderground v.1.15,2013-08-12 16:38:00,
2013-08-12 12:44:00,74.4,60.1,29.87,WNW,288,1.0,8.0,61,0.00,,,0.00,Wunderground v.1.15,2013-08-12 16:44:00,
2013-08-12 12:50:00,75.0,60.6,29.87,SSW,192,1.0,1.0,61,0.00,,,0.00,Wunderground v.1.15,2013-08-12 16:50:00,
2013-08-12 12:56:00,75.4,59.6,29.87,WSW,238,1.0,8.0,58,0.00,,,0.00,Wunderground v.1.15,2013-08-12 16:56:00,
2013-08-12 13:02:00,74.0,59.7,29.86,WNW,284,3.0,3.0,61,0.00,,,0.00,Wunderground v.1.15,2013-08-12 17:02:00,
2013-08-12 13:08:00,74.2,59.4,29.86,WNW,291,2.0,4.0,60,0.00,,,0.00,Wunderground v.1.15,2013-08-12 17:08:00,
2013-08-12 13:14:00,73.5,59.7,29.86,WNW,300,2.0,6.0,62,0.00,,,0.00,Wunderground v.1.15,2013-08-12 17:14:00,
2013-08-12 13:20:00,73.1,60.2,29.86,West,275,4.0,4.0,64,0.00,,,0.00,Wunderground v.1.15,2013-08-12 17:20:00,
2013-08-12 13:26:00,73.2,59.4,29.85,NW,305,2.0,4.0,62,0.00,,,0.00,Wunderground v.1.15,2013-08-12 17:26:00,
2013-08-12 13:32:00,74.4,61.0,29.85,SW,235,1.0,4.0,63,0.00,,,0.00,Wunderground v.1.15,2013-08-12 17:32:00,
2013-08-12 13:38:00,76.1,61.7,29.85,SSW,207,0.0,4.0,61,0.00,,,0.00,Wunderground v.1.15,2013-08-12 17:38:00,
2013-08-12 13:44:00,76.9,60.0,29.84,NW,306,2.0,4.0,56,0.00,,,0.00,Wunderground v.1.15,2013-08-12 17:44:00,
2013-08-12 13:50:00,75.7,61.3,29.84,SSW,207,2.0,7.0,61,0.00,,,0.00,Wunderground v.1.15,2013-08-12 17:50:00,
2013-08-12 13:56:00,76.1,61.2,29.85,West,273,3.0,7.0,60,0.00,,,0.00,Wunderground v.1.15,2013-08-12 17:56:00,
2013-08-12 14:02:00,75.4,61.9,29.85,WNW,288,3.0,8.0,63,0.00,,,0.00,Wunderground v.1.15,2013-08-12 18:02:00,
2013-08-12 14:08:00,75.1,61.6,29.85,NW,304,3.0,8.0,63,0.00,,,0.00,Wunderground v.1.15,2013-08-12 18:08:00,
2013-08-12 14:14:00,75.4,61.9,29.85,West,272,3.0,8.0,63,0.00,,,0.00,Wunderground v.1.15,2013-08-12 18:14:00,
2013-08-12 14:20:00,75.3,61.4,29.84,WSW,254,3.0,3.0,62,0.00,,,0.00,Wunderground v.1.15,2013-08-12 18:20:00,
2013-08-12 14:26:00,75.8,61.4,29.84,WNW,290,2.0,8.0,61,0.00,,,0.00,Wunderground v.1.15,2013-08-12 18:26:00,
2013-08-12 14:32:00,76.2,61.3,29.84,SW,236,3.0,8.0,60,0.00,,,0.00,Wunderground v.1.15,2013-08-12 18:32:00,
2013-08-12 14:38:00,77.0,62.0,29.84,SSW,200,3.0,8.0,60,0.00,,,0.00,Wunderground v.1.15,2013-08-12 18:38:00,
2013-08-12 14:44:00,77.1,61.7,29.84,WNW,298,2.0,8.0,59,0.00,,,0.00,Wunderground v.1.15,2013-08-12 18:44:00,
2013-08-12 14:50:00,75.8,62.3,29.84,SSW,200,3.0,8.0,63,0.00,,,0.00,Wunderground v.1.15,2013-08-12 18:50:00,
2013-08-12 14:56:00,77.2,63.2,29.84,SW,232,4.0,8.0,62,0.00,,,0.00,Wunderground v.1.15,2013-08-12 18:56:00,
2013-08-12 15:02:00,77.8,62.8,29.83,SSW,203,3.0,7.0,60,0.00,,,0.00,Wunderground v.1.15,2013-08-12 19:02:00,
2013-08-12 15:08:00,78.5,63.9,29.83,SW,219,3.0,9.0,61,0.00,,,0.00,Wunderground v.1.15,2013-08-12 19:08:00,
2013-08-12 15:14:00,79.4,63.3,29.83,West,263,2.0,9.0,58,0.00,,,0.00,Wunderground v.1.15,2013-08-12 19:14:00,
2013-08-12 15:20:00,79.3,62.7,29.83,WSW,248,2.0,2.0,57,0.00,,,0.00,Wunderground v.1.15,2013-08-12 19:20:00,
2013-08-12 15:26:00,78.9,62.4,29.83,SW,225,2.0,9.0,57,0.00,,,0.00,Wunderground v.1.15,2013-08-12 19:26:00,
2013-08-12 15:32:00,78.8,62.8,29.82,SSW,193,2.0,9.0,58,0.00,,,0.00,Wunderground v.1.15,2013-08-12 19:32:00,
2013-08-12 15:38:00,78.8,63.3,29.82,SSW,195,3.0,9.0,59,0.00,,,0.00,Wunderground v.1.15,2013-08-12 19:38:00,
2013-08-12 15:44:00,78.7,63.2,29.82,SSW,200,2.0,9.0,59,0.00,,,0.00,Wunderground v.1.15,2013-08-12 19:44:00,
2013-08-12 15:50:00,78.2,62.2,29.82,SW,218,1.0,9.0,58,0.00,,,0.00,Wunderground v.1.15,2013-08-12 19:50:00,
2013-08-12 15:56:00,77.5,62.0,29.82,SW,216,1.0,9.0,59,0.00,,,0.00,Wunderground v.1.15,2013-08-12 19:56:00,
2013-08-12 16:02:00,77.5,63.5,29.81,SW,216,0.0,7.0,62,0.00,,,0.00,Wunderground v.1.15,2013-08-12 20:02:00,
2013-08-12 16:08:00,77.5,63.0,29.82,SW,216,0.0,7.0,61,0.00,,,0.00,Wunderground v.1.15,2013-08-12 20:08:00,
2013-08-12 16:14:00,77.1,63.5,29.81,SW,216,0.0,7.0,63,0.00,,,0.00,Wunderground v.1.15,2013-08-12 20:14:00,
2013-08-12 16:20:00,77.0,64.3,29.81,SW,216,0.0,7.0,65,0.00,,,0.00,Wunderground v.1.15,2013-08-12 20:20:00,
2013-08-12 16:26:00,76.7,64.0,29.81,SW,216,0.0,7.0,65,0.00,,,0.00,Wunderground v.1.15,2013-08-12 20:26:00,
2013-08-12 16:32:00,76.4,63.3,29.81,SW,216,0.0,7.0,64,0.00,,,0.00,Wunderground v.1.15,2013-08-12 20:32:00,
2013-08-12 16:38:00,76.2,64.0,29.81,SW,216,0.0,7.0,66,0.00,,,0.00,Wunderground v.1.15,2013-08-12 20:38:00,
2013-08-12 16:44:00,76.4,64.2,29.81,SW,219,0.0,7.0,66,0.00,,,0.00,Wunderground v.1.15,2013-08-12 20:44:00,
2013-08-12 16:50:00,76.8,64.6,29.81,South,188,0.0,7.0,66,0.00,,,0.00,Wunderground v.1.15,2013-08-12 20:50:00,
2013-08-12 16:56:00,77.1,64.4,29.81,South,188,0.0,7.0,65,0.00,,,0.00,Wunderground v.1.15,2013-08-12 20:56:00,
2013-08-12 17:02:00,76.9,63.8,29.80,South,188,0.0,0.0,64,0.00,,,0.00,Wunderground v.1.15,2013-08-12 21:02:00,
2013-08-12 17:08:00,76.6,65.2,29.80,South,188,0.0,0.0,68,0.00,,,0.00,Wunderground v.1.15,2013-08-12 21:08:00,
2013-08-12 17:14:00,76.5,65.6,29.80,South,188,0.0,0.0,69,0.00,,,0.00,Wunderground v.1.15,2013-08-12 21:14:00,
2013-08-12 17:20:00,76.2,66.9,29.80,South,188,0.0,0.0,73,0.00,,,0.00,Wunderground v.1.15,2013-08-12 21:20:00,
2013-08-12 17:26:00,75.9,65.8,29.80,South,188,0.0,0.0,71,0.00,,,0.00,Wunderground v.1.15,2013-08-12 21:26:00,
2013-08-12 17:32:00,75.6,65.9,29.80,South,188,0.0,0.0,72,0.00,,,0.00,Wunderground v.1.15,2013-08-12 21:32:00,
2013-08-12 17:38:00,75.5,65.4,29.80,South,188,0.0,0.0,71,0.00,,,0.00,Wunderground v.1.15,2013-08-12 21:38:00,
2013-08-12 17:44:00,75.4,64.1,29.80,South,188,0.0,0.0,68,0.00,,,0.00,Wunderground v.1.15,2013-08-12 21:44:00,
2013-08-12 17:50:00,75.5,63.8,29.79,South,188,0.0,0.0,67,0.00,,,0.00,Wunderground v.1.15,2013-08-12 21:50:00,
2013-08-12 17:56:00,75.8,65.7,29.79,South,188,0.0,0.0,71,0.00,,,0.00,Wunderground v.1.15,2013-08-12 21:56:00,
2013-08-12 18:02:00,75.9,66.6,29.78,South,188,0.0,0.0,73,0.00,,,0.00,Wunderground v.1.15,2013-08-12 22:02:00,
2013-08-12 18:08:00,75.6,65.9,29.78,WSW,250,0.0,0.0,72,0.00,,,0.00,Wunderground v.1.15,2013-08-12 22:08:00,
2013-08-12 18:14:00,75.1,65.5,29.79,WSW,250,0.0,0.0,72,0.00,,,0.00,Wunderground v.1.15,2013-08-12 22:14:00,
2013-08-12 18:19:00,74.6,64.0,29.78,WSW,250,0.0,0.0,69,0.00,,,0.00,weatherlink.com 1.10,2013-08-12 22:19:00,
2013-08-12 18:26:00,74.5,64.9,29.78,WSW,242,0.0,0.0,72,0.00,,,0.00,Wunderground v.1.15,2013-08-12 22:26:00,
2013-08-12 18:32:00,74.7,65.9,29.77,WSW,242,0.0,0.0,74,0.00,,,0.00,Wunderground v.1.15,2013-08-12 22:32:00,
2013-08-12 18:38:00,75.0,66.5,29.77,WSW,242,0.0,0.0,75,0.00,,,0.00,Wunderground v.1.15,2013-08-12 22:38:00,
2013-08-12 18:44:00,75.3,66.0,29.77,WSW,242,0.0,0.0,73,0.00,,,0.00,Wunderground v.1.15,2013-08-12 22:44:00,
2013-08-12 18:50:00,75.4,65.3,29.77,WSW,242,0.0,0.0,71,0.00,,,0.00,Wunderground v.1.15,2013-08-12 22:50:00,
2013-08-12 18:56:00,75.1,64.2,29.77,WSW,242,0.0,0.0,69,0.00,,,0.00,Wunderground v.1.15,2013-08-12 22:56:00,
2013-08-12 19:02:00,74.8,64.4,29.77,WSW,242,0.0,0.0,70,0.00,,,0.00,Wunderground v.1.15,2013-08-12 23:02:00,
2013-08-12 19:08:00,74.4,64.0,29.77,WSW,242,0.0,0.0,70,0.00,,,0.00,Wunderground v.1.15,2013-08-12 23:08:00,
2013-08-12 19:14:00,73.9,63.5,29.77,WSW,242,0.0,0.0,70,0.00,,,0.00,Wunderground v.1.15,2013-08-12 23:14:00,
2013-08-12 19:19:00,73.5,64.0,29.77,WSW,242,0.0,0.0,72,0.00,,,0.00,weatherlink.com 1.10,2013-08-12 23:19:00,
2013-08-12 19:26:00,73.1,64.3,29.77,SW,227,0.0,0.0,74,0.00,,,0.00,Wunderground v.1.15,2013-08-12 23:26:00,
2013-08-12 19:32:00,72.7,64.3,29.77,SW,227,0.0,0.0,75,0.00,,,0.00,Wunderground v.1.15,2013-08-12 23:32:00,
2013-08-12 19:38:00,72.3,64.3,29.77,SW,216,0.0,0.0,76,0.00,,,0.00,Wunderground v.1.15,2013-08-12 23:38:00,
2013-08-12 19:44:00,72.0,64.8,29.77,SW,216,0.0,0.0,78,0.00,,,0.00,Wunderground v.1.15,2013-08-12 23:44:00,
2013-08-12 19:50:00,71.8,64.9,29.77,SW,216,0.0,0.0,79,0.00,,,0.00,Wunderground v.1.15,2013-08-12 23:50:00,
2013-08-12 19:56:00,71.8,64.6,29.78,SW,216,0.0,0.0,78,0.00,,,0.00,Wunderground v.1.15,2013-08-12 23:56:00,
2013-08-12 20:02:00,71.7,64.1,29.77,SW,216,0.0,0.0,77,0.00,,,0.00,Wunderground v.1.15,2013-08-13 00:02:00,
2013-08-12 20:08:00,71.4,63.8,29.77,SW,216,0.0,0.0,77,0.00,,,0.00,Wunderground v.1.15,2013-08-13 00:08:00,
2013-08-12 20:14:00,71.1,63.9,29.77,SW,216,0.0,0.0,78,0.00,,,0.00,Wunderground v.1.15,2013-08-13 00:14:00,
2013-08-12 20:20:00,70.7,63.1,29.77,SW,216,0.0,0.0,77,0.00,,,0.00,Wunderground v.1.15,2013-08-13 00:20:00,
2013-08-12 20:28:00,70.2,62.6,29.77,SW,217,0.0,0.0,77,0.00,,,0.00,Wunderground v.1.15,2013-08-13 00:28:00,
2013-08-12 20:34:00,69.9,62.7,29.77,SW,235,0.0,0.0,78,0.00,,,0.00,Wunderground v.1.15,2013-08-13 00:34:00,
2013-08-12 20:40:00,69.7,62.5,29.76,SSW,207,0.0,0.0,78,0.00,,,0.00,Wunderground v.1.15,2013-08-13 00:40:00,
2013-08-12 20:46:00,69.5,62.7,29.76,SSW,207,0.0,0.0,79,0.00,,,0.00,Wunderground v.1.15,2013-08-13 00:46:00,
2013-08-12 20:51:00,69.4,63.0,29.76,SSW,207,0.0,0.0,79,0.00,,,0.00,weatherlink.com 1.10,2013-08-13 00:51:00,
2013-08-12 20:58:00,69.2,62.4,29.76,SSW,207,0.0,0.0,79,0.00,,,0.00,Wunderground v.1.15,2013-08-13 00:58:00,
2013-08-12 21:04:00,69.1,62.7,29.75,SSW,207,0.0,0.0,80,0.00,,,0.00,Wunderground v.1.15,2013-08-13 01:04:00,
2013-08-12 21:10:00,68.9,62.8,29.76,SSW,207,0.0,0.0,81,0.00,,,0.00,Wunderground v.1.15,2013-08-13 01:10:00,
2013-08-12 21:16:00,68.7,63.0,29.76,SSW,198,0.0,0.0,82,0.00,,,0.00,Wunderground v.1.15,2013-08-13 01:16:00,
2013-08-12 21:21:00,68.6,63.0,29.76,SSW,213,0.0,0.0,82,0.00,,,0.00,weatherlink.com 1.10,2013-08-13 01:21:00,
2013-08-12 21:28:00,68.4,63.0,29.76,SSW,210,0.0,0.0,83,0.00,,,0.00,Wunderground v.1.15,2013-08-13 01:28:00,
2013-08-12 21:34:00,68.3,63.3,29.76,SW,221,1.0,2.0,84,0.00,,,0.00,Wunderground v.1.15,2013-08-13 01:34:00,
2013-08-12 21:40:00,68.2,63.2,29.77,SSW,211,2.0,4.0,84,0.00,,,0.00,Wunderground v.1.15,2013-08-13 01:40:00,
2013-08-12 21:46:00,68.0,63.0,29.76,SW,227,1.0,4.0,84,0.00,,,0.00,Wunderground v.1.15,2013-08-13 01:46:00,
2013-08-12 21:51:00,67.8,63.0,29.77,SSW,208,0.0,4.0,85,0.00,,,0.00,weatherlink.com 1.10,2013-08-13 01:51:00,
2013-08-12 21:58:00,67.7,63.4,29.76,SW,223,0.0,1.0,86,0.00,,,0.00,Wunderground v.1.15,2013-08-13 01:58:00,
2013-08-12 22:04:00,67.5,63.2,29.77,SW,222,1.0,6.0,86,0.00,,,0.00,Wunderground v.1.15,2013-08-13 02:04:00,
2013-08-12 22:10:00,67.3,63.0,29.77,SW,221,1.0,6.0,86,0.00,,,0.00,Wunderground v.1.15,2013-08-13 02:10:00,
2013-08-12 22:16:00,67.0,63.0,29.77,SSW,208,2.0,6.0,87,0.00,,,0.00,Wunderground v.1.15,2013-08-13 02:16:00,
2013-08-12 22:21:00,66.9,63.0,29.77,SSW,213,3.0,6.0,87,0.00,,,0.00,weatherlink.com 1.10,2013-08-13 02:21:00,
2013-08-12 22:28:00,66.7,63.0,29.76,SSW,193,3.0,6.0,88,0.00,,,0.00,Wunderground v.1.15,2013-08-13 02:28:00,
2013-08-12 22:34:00,66.6,62.9,29.76,SSW,201,4.0,6.0,88,0.00,,,0.00,Wunderground v.1.15,2013-08-13 02:34:00,
2013-08-12 22:40:00,66.5,62.8,29.76,SSW,198,4.0,4.0,88,0.00,,,0.00,Wunderground v.1.15,2013-08-13 02:40:00,
2013-08-12 22:46:00,66.5,62.8,29.76,SSW,198,4.0,6.0,88,0.00,,,0.00,Wunderground v.1.15,2013-08-13 02:46:00,
2013-08-12 22:52:00,66.5,62.8,29.76,SSW,200,4.0,6.0,88,0.00,,,0.00,Wunderground v.1.15,2013-08-13 02:52:00,
2013-08-12 23:00:00,66.6,62.9,29.76,SSW,196,4.0,4.0,88,0.00,,,0.00,Wunderground v.1.15,2013-08-13 03:00:00,
2013-08-12 23:06:00,66.7,63.0,29.75,South,186,4.0,6.0,88,0.00,,,0.00,Wunderground v.1.15,2013-08-13 03:06:00,
2013-08-12 23:12:00,66.9,62.9,29.75,South,185,5.0,7.0,87,0.00,,,0.00,Wunderground v.1.15,2013-08-13 03:12:00,
2013-08-12 23:18:00,66.9,62.9,29.75,South,190,5.0,7.0,87,0.00,,,0.00,Wunderground v.1.15,2013-08-13 03:18:00,
2013-08-12 23:24:00,66.9,62.9,29.75,SSW,201,4.0,6.0,87,0.00,,,0.00,Wunderground v.1.15,2013-08-13 03:24:00,
2013-08-12 23:30:00,66.9,62.9,29.75,SSW,196,4.0,4.0,87,0.00,,,0.00,Wunderground v.1.15,2013-08-13 03:30:00,
2013-08-12 23:36:00,66.9,62.6,29.75,SSW,197,5.0,7.0,86,0.00,,,0.00,Wunderground v.1.15,2013-08-13 03:36:00,
2013-08-12 23:42:00,66.9,62.6,29.75,SSW,209,5.0,6.0,86,0.00,,,0.00,Wunderground v.1.15,2013-08-13 03:42:00,
2013-08-12 23:48:00,66.9,62.6,29.75,SSW,192,5.0,6.0,86,0.00,,,0.00,Wunderground v.1.15,2013-08-13 03:48:00,
2013-08-12 23:54:00,67.0,62.7,29.74,South,178,5.0,6.0,86,0.00,,,0.00,Wunderground v.1.15,2013-08-13 03:54:00,